This is the latest recevied weather packets stored in our database for station/object DG9BJA-13. If no packets are shown the sender has not sent any weather packets the latest 1 day(s).
| Time | Temp. | Humidity | Pressure | Rain* | Wind** | Luminosity | Snow |
|---|---|---|---|---|---|---|---|
| 1836274450 | 19.44° C | 67% | 1015.1 hPa | 0 mm | 1.79 m/s, 0° | 0 W/m² | - |
| 1836274300 | 19.44° C | 67% | 1014.9 hPa | 0 mm | 2.24 m/s, 180° | 0 W/m² | - |
| 1778019377 | 10.56° C | 92% | 1008.6 hPa | 0 mm | 2.68 m/s, 23° | 0 W/m² | - |
| 1778018777 | 10.56° C | 92% | 1008.7 hPa | 0 mm | 2.68 m/s, 23° | 0 W/m² | - |
| 1778018176 | 10.56° C | 93% | 1008.8 hPa | 0 mm | 4.02 m/s, 45° | 0 W/m² | - |
| 1778017576 | 10.56° C | 93% | 1008.8 hPa | 0 mm | 1.79 m/s, 45° | 0 W/m² | - |
| 1778016976 | 10.56° C | 93% | 1008.9 hPa | 0 mm | 1.79 m/s, 23° | 0 W/m² | - |
| 1778016376 | 10.56° C | 93% | 1008.9 hPa | 0 mm | 1.34 m/s, 23° | 0 W/m² | - |
| 1778015776 | 10.56° C | 93% | 1008.9 hPa | 0 mm | 1.79 m/s, 23° | 0 W/m² | - |
| 1778015176 | 10.56° C | 93% | 1008.9 hPa | 0 mm | 1.34 m/s, 23° | 0 W/m² | - |
| 1778014576 | 10.56° C | 93% | 1008.9 hPa | 0 mm | 1.34 m/s, 23° | 0 W/m² | - |
| 1778013976 | 10.56° C | 93% | 1008.9 hPa | 0 mm | 1.34 m/s, 0° | 0 W/m² | - |
| 1778013375 | 10.56° C | 93% | 1008.9 hPa | 0 mm | 2.68 m/s, 23° | 0 W/m² | - |
| 1778012776 | 10.56° C | 92% | 1008.9 hPa | 0 mm | 1.79 m/s, 23° | 0 W/m² | - |
| 1778012176 | 10.56° C | 92% | 1008.9 hPa | 0 mm | 1.79 m/s, 0° | 0 W/m² | - |
| 1778011576 | 10.56° C | 92% | 1008.9 hPa | 0 mm | 1.79 m/s, 0° | 0 W/m² | - |
| 1778010976 | 11.11° C | 92% | 1008.9 hPa | 0 mm | 1.34 m/s, 0° | 0 W/m² | - |
| 1778010376 | 11.11° C | 91% | 1008.9 hPa | 0 mm | 1.34 m/s, 23° | 0 W/m² | - |
| 1778009776 | 11.11° C | 91% | 1008.9 hPa | 0 mm | 1.79 m/s, 45° | 0 W/m² | - |
| 1778009175 | 11.11° C | 91% | 1008.9 hPa | 0 mm | 1.79 m/s, 23° | 0 W/m² | - |
| 1778008575 | 11.11° C | 91% | 1008.9 hPa | 0 mm | 1.79 m/s, 23° | 0 W/m² | - |
| 1778007975 | 11.11° C | 90% | 1008.9 hPa | 0 mm | 1.79 m/s, 45° | 0 W/m² | - |
| 1778007375 | 11.11° C | 90% | 1008.9 hPa | 0 mm | 2.24 m/s, 45° | 0 W/m² | - |
| 1778006775 | 11.11° C | 90% | 1008.9 hPa | 0 mm | 1.79 m/s, 23° | 0 W/m² | - |
| 1778006175 | 11.11° C | 90% | 1008.9 hPa | 0 mm | 1.34 m/s, 45° | 0 W/m² | - |
* Rain latest hour (hover to see other rain measurements)
** Current wind speed in m/s (hover to see current wind gust speed)